Location: Bastrop State Park
(30.1090°N, 97.2819°W)
Time: 01:17:38
(UTC-05:00)

Daily predictions for brighter satellites

Satellite Brightness Start Highest point End
(mag) Time Altitude Azimuth Time Altitude Azimuth Time Altitude Azimuth
CZ-3A R/B 3.7 03:32:24 86° NE 03:32:24 86° NE 04:06:57 10° NE
SL-16 R/B 3.9 03:34:24 32° ENE 03:34:24 32° ENE 03:39:36 10° N
Resurs 1-4 Rocket 3.9 03:45:57 10° NNE 03:48:33 28° NE 03:48:33 28° NE
ARIANE 5 R/B 4.4 03:48:41 10° NNE 03:50:57 26° NNE 03:50:57 26° NNE
ATLAS 5 CENTAUR R/B 3.6 04:09:30 29° ENE 04:09:30 29° ENE 04:12:15 10° NE
USA 234 4.2 04:11:45 10° NNE 04:17:15 35° NNW 04:17:15 35° NNW
ATLAS CENTAUR R/B 4.0 04:15:58 10° N 04:18:52 18° NE 04:21:36 10° E
Meteor 2-3 Rocket 4.3 04:15:18 10° N 04:19:58 56° NNE 04:19:58 56° NNE
CZ-3 R/B 4.3 03:14:01 10° W 04:22:52 81° SSW 04:35:38 10° ESE
Meteor 2-10 4.4 04:36:28 63° N 04:36:28 63° N 04:41:03 10° N
Cosmos 1943 4.0 04:39:50 40° NNW 04:39:50 40° NNW 04:43:55 10° N
CZ-2D R/B 3.2 04:44:56 10° N 04:48:11 32° NNW 04:48:11 32° NNW
Cosmos 1455 4.0 04:54:29 26° N 04:54:29 26° N 04:56:20 10° N
CENTAUR R/B 2.5 04:51:52 57° S 04:53:03 72° ESE 04:59:32 10° NNE
Cosmos 2315 Rocket 4.0 04:55:52 60° W 04:55:56 60° W 05:02:06 10° N
Cosmos 2369 Rocket 2.1 04:50:35 10° NNW 04:56:13 83° ENE 05:01:51 10° SSE
Okean O Rocket 1.7 04:53:33 10° NNE 04:57:46 77° NE 04:57:46 77° NE
CZ-4B R/B 3.4 04:53:11 10° NNE 04:58:26 63° ESE 05:00:19 39° SSE
ARGOS Delta rocket 3.9 05:02:48 10° N 05:06:27 54° NW 05:06:27 54° NW
CZ-2C R/B 3.9 05:07:43 16° SSE 05:11:16 69° ENE 05:15:40 10° N
Cosmos 839 Rocket 4.1 05:04:19 10° NNW 05:11:49 69° WSW 05:18:03 10° SSE
Cosmos 389 Rocket 3.4 05:13:58 40° N 05:13:58 40° N 05:16:19 10° N
Cosmos 1703 Rocket 4.5 05:13:04 18° SSE 05:16:11 48° E 05:20:30 10° NNE
SL-16 R/B 3.6 05:19:30 26° WNW 05:19:30 26° WNW 05:23:01 10° NW
MOZ.5/SAFIR/RUBIN 5/SL-8 3.6 05:19:08 22° S 05:22:09 80° W 05:26:48 10° NNW
PAYLOAD B 4.1 05:16:49 10° N 05:22:19 70° WNW 05:24:40 35° SSW
Cosmos 1302 Rocket 3.8 05:17:23 10° NNW 05:22:37 74° WSW 05:27:46 10° S
Cosmos 2263 4.1 05:19:56 10° NNW 05:25:43 77° WSW 05:31:28 10° SSE
Cosmos 1943 Rocket 2.7 05:21:05 10° N 05:26:40 59° ENE 05:32:12 10° SSE
Cosmos 1862 4.1 05:24:14 10° N 05:28:06 51° E 05:31:57 10° SSE
CZ-4B R/B 2.7 05:26:06 10° N 05:29:42 57° WNW 05:29:49 56° W
Resurs 1-4 Rocket 3.9 05:27:25 10° NNW 05:29:37 15° WNW 05:29:37 15° WNW
Cosmos 1933 3.2 05:33:48 39° SSW 05:35:12 68° W 05:39:18 10° N
Cosmos 1825 2.6 05:34:19 10° N 05:38:04 63° E 05:41:49 10° SSE
BREEZE-M DEB (TANK) 4.0 05:40:10 29° WSW 05:41:43 35° SSW 05:52:15 10° SSE
Cosmos 1408 2.8 05:39:13 10° N 05:42:58 74° E 05:46:42 10° S
Cosmos 1184 Rocket 3.5 05:40:51 10° NNW 05:43:32 35° WNW 05:43:32 35° WNW
Skynet4D Del rocket 4.5 05:40:01 24° W 05:44:49 58° SSW 05:51:45 10° ESE
PSLV R/B 3.5 05:42:23 10° N 05:46:47 82° WNW 05:50:47 12° SSW
ADEOS II 2.1 05:43:37 10° NNE 05:48:54 82° ESE 05:54:09 10° S
Nadezhda 1 Rocket 3.9 05:43:16 10° SSW 05:49:24 67° W 05:55:41 10° N
SeaSat 1 2.8 05:45:14 10° S 05:49:48 39° WSW 05:54:23 10° NW
Geosat 4.3 05:46:00 10° N 05:50:50 49° WNW 05:53:50 22° SW
ATLAS 5 CENTAUR R/B 3.4 05:51:04 16° WNW 05:52:27 18° NW 05:55:56 10° N
Thor Agena Rocket 3.4 05:48:40 10° S 05:53:43 69° WSW 05:58:52 10° NNW
Okean 2 Rocket 4.0 05:49:22 10° N 05:53:45 51° E 05:58:09 10° SSE
ATLAS CENTAUR R/B 2.1 05:54:27 10° NW 05:57:56 27° WSW 06:01:11 10° S
Atlas Centaur 2 2.5 05:55:28 20° SW 05:58:23 45° SSE 06:03:55 10° E
Cosmos 1190 Rocket 3.9 05:56:26 10° SSW 06:01:37 75° WNW 06:06:49 10° NNE
Cosmos 1656 Rocket 4.5 05:56:46 10° N 06:02:03 53° ENE 06:07:18 10° SE
Okean 1-7 2.9 05:58:36 10° SSW 06:02:51 72° W 06:07:10 10° N
BREEZE-M DEB (TANK) 4.3 06:01:52 17° WNW 06:03:00 22° NNW 06:06:10 10° NNE
Intelsat 3F5 C 3.3 06:02:36 33° W 06:03:34 89° S 06:05:58 10° E
USA 32 4.3 06:01:34 10° SSW 06:06:33 45° W 06:11:33 10° NNW
SL-27 R/B 4.2 06:07:20 17° W 06:08:01 18° WNW 06:10:33 10° NNW
GPS 2-05 Rocket1 2.8 06:10:43 18° WSW 06:13:00 68° SSE 06:16:13 10° ENE
COSMOS 2406 4.0 06:11:34 14° WSW 06:15:48 32° WNW 06:20:56 10° N
AVUM R/B 3.1 06:13:03 10° SSW 06:16:06 88° ESE 06:19:22 10° NNE
Cosmos 2154 Rocket 4.0 06:12:19 10° N 06:18:40 82° W 06:25:00 10° S
Cosmos 1992 Rocket 3.9 06:15:17 10° NNW 06:20:30 72° WSW 06:25:41 10° S
Cosmos 1782 Rocket 3.6 06:17:27 10° NNW 06:21:40 53° W 06:25:52 10° S
Cosmos 1954 Rocket 4.2 06:17:01 10° S 06:22:08 73° ESE 06:27:18 10° NNE
MOS 1 Rocket 3.0 06:28:31 10° N 06:32:47 72° WNW 06:37:04 10° SSW
CZ-4B R/B 4.3 06:29:21 10° N 06:33:46 55° WNW 06:38:05 10° SSW
Okean-O 3.9 06:32:14 10° NNW 06:35:43 23° WNW 06:39:11 10° WSW
Cosmos 2341 Rocket 4.0 06:30:33 10° N 06:36:49 75° W 06:43:08 10° S
COSMO-SKYMED 1 3.7 06:32:58 10° SSE 06:37:08 49° ENE 06:41:20 10° N
Cosmos 676 Rocket 4.1 06:33:49 10° SSW 06:38:52 55° WNW 06:43:57 10° N
